• In Latvia
  • List of Countries
  • For 7 days
  • Water Temperature
  • Satellite Maps
  • Weather Map
  • Weather Widgets
  • user-avatar
    Login

    Hourly Weather Samanchi

    Today, 22 July, Sunday

    Time Temperature Precipitation Wind Pressure Humidity
    00:00 +34°C° 0 mm 2 mps 698 mmHg 27%
    01:00 +34°C° 0 mm 2 mps 698 mmHg 28%
    02:00 +32°C° 0 mm 2 mps 697 mmHg 29%
    03:00 +32°C° 0 mm 1 mps 697 mmHg 30%
    04:00 +32°C° 0 mm 1 mps 697 mmHg 31%
    05:00 +31°C° 0 mm 1 mps 697 mmHg 32%
    06:00 +33°C° 0 mm 1 mps 698 mmHg 29%
    07:00 +35°C° 0 mm 1 mps 698 mmHg 26%
    08:00 +36°C° 0 mm 1 mps 699 mmHg 23%
    09:00 +39°C° 0 mm 1 mps 699 mmHg 21%
    10:00 +40°C° 0 mm 1 mps 699 mmHg 19%
    11:00 +41°C° 0 mm 2 mps 699 mmHg 17%
    12:00 +42°C° 0 mm 2 mps 699 mmHg 16%
    13:00 +44°C° 0 mm 3 mps 699 mmHg 15%
    14:00 +44°C° 0 mm 3 mps 698 mmHg 14%
    15:00 +45°C° 0 mm 3 mps 698 mmHg 13%
    16:00 +45°C° 0 mm 4 mps 698 mmHg 13%
    17:00 +45°C° 0 mm 4 mps 697 mmHg 13%
    18:00 +43°C° 0 mm 3 mps 697 mmHg 14%
    19:00 +40°C° 0 mm 2 mps 697 mmHg 16%
    20:00 +37°C° 0 mm 1 mps 697 mmHg 18%
    21:00 +37°C° 0 mm 2 mps 697 mmHg 18%
    22:00 +36°C° 0 mm 2 mps 697 mmHg 19%
    23:00 +35°C° 0 mm 2 mps 697 mmHg 20%

    Tomorrow, 23 July, Monday

    Time Temperature Precipitation Wind Pressure Humidity
    00:00 +35°C° 0 mm 2 mps 697 mmHg 20%
    01:00 +34°C° 0 mm 2 mps 697 mmHg 20%
    02:00 +34°C° 0 mm 2 mps 697 mmHg 20%
    03:00 +32°C° 0 mm 2 mps 697 mmHg 21%
    04:00 +32°C° 0 mm 2 mps 697 mmHg 21%
    05:00 +31°C° 0 mm 2 mps 697 mmHg 21%
    06:00 +33°C° 0 mm 1 mps 697 mmHg 20%
    07:00 +35°C° 0 mm 1 mps 698 mmHg 18%
    08:00 +37°C° 0 mm 1 mps 698 mmHg 16%
    09:00 +39°C° 0 mm 2 mps 698 mmHg 15%
    10:00 +41°C° 0 mm 2 mps 698 mmHg 14%
    11:00 +42°C° 0 mm 2 mps 699 mmHg 13%
    12:00 +44°C° 0 mm 3 mps 698 mmHg 13%
    13:00 +44°C° 0 mm 3 mps 698 mmHg 12%
    14:00 +45°C° 0 mm 4 mps 698 mmHg 12%
    15:00 +45°C° 0 mm 4 mps 698 mmHg 12%
    16:00 +45°C° 0 mm 4 mps 697 mmHg 12%
    17:00 +45°C° 0 mm 4 mps 697 mmHg 13%
    18:00 +43°C° 0 mm 3 mps 697 mmHg 15%
    19:00 +40°C° 0 mm 2 mps 697 mmHg 18%
    20:00 +37°C° 0 mm 1 mps 697 mmHg 20%
    21:00 +37°C° 0 mm 2 mps 697 mmHg 22%
    22:00 +37°C° 0 mm 2 mps 697 mmHg 24%
    23:00 +36°C° 0 mm 2 mps 697 mmHg 26%

    Day after tomorrow, 24 July, Tuesday

    Time Temperature Precipitation Wind Pressure Humidity
    00:00 +35°C° 0 mm 2 mps 697 mmHg 27%
    01:00 +35°C° 0 mm 2 mps 697 mmHg 28%
    02:00 +34°C° 0 mm 2 mps 697 mmHg 29%
    03:00 +34°C° 0 mm 2 mps 697 mmHg 29%
    04:00 +32°C° 0 mm 2 mps 697 mmHg 29%
    05:00 +32°C° 0 mm 1 mps 697 mmHg 29%
    06:00 +33°C° 0 mm 1 mps 698 mmHg 26%
    07:00 +35°C° 0 mm 1 mps 698 mmHg 24%
    08:00 +36°C° 0 mm 1 mps 699 mmHg 21%
    09:00 +38°C° 0 mm 2 mps 699 mmHg 19%
    10:00 +40°C° 0 mm 2 mps 699 mmHg 18%
    11:00 +41°C° 0 mm 2 mps 700 mmHg 17%
    12:00 +41°C° 0 mm 2 mps 699 mmHg 16%
    13:00 +42°C° 0 mm 2 mps 699 mmHg 16%
    14:00 +44°C° 0 mm 3 mps 699 mmHg 15%
    15:00 +44°C° 0 mm 3 mps 699 mmHg 15%
    16:00 +44°C° 0 mm 3 mps 699 mmHg 15%
    17:00 +43°C° 0 mm 2 mps 699 mmHg 15%
    18:00 +41°C° 0 mm 2 mps 699 mmHg 18%
    19:00 +39°C° 0 mm 2 mps 699 mmHg 21%
    20:00 +37°C° 0 mm 2 mps 699 mmHg 24%
    21:00 +36°C° 0 mm 2 mps 699 mmHg 25%
    22:00 +36°C° 0 mm 2 mps 699 mmHg 25%
    23:00 +35°C° 0 mm 2 mps 699 mmHg 26%

    25 July, Wednesday

    Time Temperature Precipitation Wind Pressure Humidity
    00:00 +34°C° 0 mm 2 mps 699 mmHg 26%
    01:00 +34°C° 0 mm 2 mps 699 mmHg 27%
    02:00 +32°C° 0 mm 2 mps 698 mmHg 28%
    03:00 +31°C° 0 mm 2 mps 698 mmHg 29%
    04:00 +31°C° 0 mm 2 mps 699 mmHg 30%
    05:00 +30°C° 0 mm 2 mps 699 mmHg 30%
    06:00 +31°C° 0 mm 2 mps 699 mmHg 28%
    07:00 +34°C° 0 mm 2 mps 700 mmHg 26%
    08:00 +35°C° 0 mm 2 mps 700 mmHg 23%
    09:00 +36°C° 0 mm 2 mps 700 mmHg 22%
    10:00 +37°C° 0 mm 2 mps 700 mmHg 20%
    11:00 +38°C° 0 mm 3 mps 701 mmHg 19%
    12:00 +39°C° 0 mm 3 mps 700 mmHg 18%
    13:00 +39°C° 0 mm 3 mps 700 mmHg 18%
    14:00 +40°C° 0 mm 3 mps 700 mmHg 17%
    15:00 +40°C° 0 mm 3 mps 700 mmHg 17%
    16:00 +40°C° 0 mm 3 mps 700 mmHg 17%
    17:00 +40°C° 0 mm 3 mps 700 mmHg 17%
    18:00 +38°C° 0 mm 2 mps 700 mmHg 19%
    19:00 +36°C° 0 mm 2 mps 700 mmHg 21%
    20:00 +33°C° 0 mm 1 mps 700 mmHg 23%
    21:00 +34°C° 0 mm 2 mps 700 mmHg 23%
    22:00 +32°C° 0 mm 2 mps 700 mmHg 24%
    23:00 +31°C° 0 mm 2 mps 700 mmHg 24%

    26 July, Thursday

    Time Temperature Precipitation Wind Pressure Humidity
    00:00 +30°C° 0 mm 2 mps 700 mmHg 24%
    01:00 +30°C° 0 mm 2 mps 699 mmHg 24%
    02:00 +29°C° 0 mm 2 mps 699 mmHg 24%
    03:00 +29°C° 0 mm 2 mps 699 mmHg 25%
    04:00 +28°C° 0 mm 2 mps 700 mmHg 25%
    05:00 +28°C° 0 mm 2 mps 700 mmHg 26%
    06:00 +29°C° 0 mm 2 mps 700 mmHg 24%
    07:00 +30°C° 0 mm 2 mps 701 mmHg 23%
    08:00 +31°C° 0 mm 2 mps 701 mmHg 21%
    09:00 +33°C° 0 mm 3 mps 701 mmHg 20%
    10:00 +34°C° 0 mm 3 mps 702 mmHg 19%
    11:00 +35°C° 0 mm 3 mps 702 mmHg 17%
    12:00 +36°C° 0 mm 3 mps 702 mmHg 17%
    13:00 +36°C° 0 mm 3 mps 701 mmHg 17%
    14:00 +37°C° 0 mm 3 mps 701 mmHg 16%
    15:00 +37°C° 0 mm 3 mps 701 mmHg 17%
    16:00 +37°C° 0 mm 2 mps 701 mmHg 17%
    17:00 +37°C° 0 mm 2 mps 701 mmHg 18%
    18:00 +36°C° 0 mm 2 mps 701 mmHg 20%
    19:00 +34°C° 0 mm 2 mps 701 mmHg 22%
    20:00 +31°C° 0 mm 1 mps 700 mmHg 24%
    21:00 +31°C° 0 mm 2 mps 700 mmHg 25%
    22:00 +30°C° 0 mm 2 mps 700 mmHg 25%
    23:00 +29°C° 0 mm 2 mps 700 mmHg 26%

    27 July, Friday

    Time Temperature Precipitation Wind Pressure Humidity
    00:00 +29°C° 0 mm 2 mps 700 mmHg 26%
    01:00 +28°C° 0 mm 2 mps 700 mmHg 26%
    02:00 +28°C° 0 mm 2 mps 700 mmHg 27%
    03:00 +27°C° 0 mm 2 mps 700 mmHg 28%
    04:00 +27°C° 0 mm 2 mps 700 mmHg 29%
    05:00 +26°C° 0 mm 2 mps 700 mmHg 30%
    06:00 +28°C° 0 mm 2 mps 701 mmHg 28%
    07:00 +29°C° 0 mm 2 mps 701 mmHg 26%
    08:00 +30°C° 0 mm 2 mps 702 mmHg 25%
    09:00 +31°C° 0 mm 2 mps 702 mmHg 24%
    10:00 +32°C° 0 mm 2 mps 702 mmHg 23%
    11:00 +35°C° 0 mm 2 mps 702 mmHg 22%
    12:00 +35°C° 0 mm 2 mps 702 mmHg 21%
    13:00 +36°C° 0 mm 2 mps 701 mmHg 20%
    14:00 +37°C° 0 mm 3 mps 701 mmHg 20%
    15:00 +37°C° 0 mm 3 mps 701 mmHg 20%
    16:00 +36°C° 0 mm 3 mps 701 mmHg 20%
    17:00 +36°C° 0 mm 3 mps 700 mmHg 20%
    18:00 +35°C° 0 mm 2 mps 700 mmHg 22%
    19:00 +32°C° 0 mm 2 mps 700 mmHg 25%
    20:00 +31°C° 0 mm 1 mps 700 mmHg 27%
    21:00 +30°C° 0 mm 1 mps 700 mmHg 28%
    22:00 +29°C° 0 mm 2 mps 700 mmHg 30%
    23:00 +29°C° 0 mm 2 mps 700 mmHg 31%
    Show more